Flag for Germany Weather past 2 weeks in Chemnitz, Saxony, Germany

Now
39 °F

Passing clouds.


Feels Like: 29 °F
Forecast: 30 / 37 °F
Wind: 20 mph from Southwest

Location: Altenburg Nobitz

Current Time: Jan 28, 2015 at 9:38:58 PM

Latest Report: Jan 28, 2015 at 5:50 PM


Visibility: N/A

Pressure: 29.56 "Hg

Humidity: 81%

Dew point: 34 °F

Location of ChemnitzLocation

Historic Weather in Chemnitz — Graph

°F

Chemnitz temperature yesterday

Maximum temperature yesterday: 37 °F (at 9:50 AM)
Minimum temperature yesterday: 36 °F (at 8:20 AM)
Average temperature yesterday: 37 °F

Past Weeks' High & Low Weather Summary

 TemperatureHumidityPressure
High52 °F (Jan 13, 5:50 PM)100% (Jan 14, 8:50 AM)30.30 "Hg (Jan 14, 8:50 AM)
Low27 °F (Jan 19, 8:20 AM)47% (Jan 13, 5:50 PM)29.56 "Hg (Jan 28, 5:50 PM)
Average37 °F91%29.95 "Hg
* Reported Jan 13 5:50 PM — Jan 28 5:50 PM, Chemnitz, Weather by CustomWeather, © 2014

Note: Actual official high and low records may vary slightly from our data, if they occured in-between our weather recording intervals... More about our weather records

Advertising

Chemnitz weather history for previous 24 hours

 ConditionsComfort  
Time TempWeatherWind HumidityBarometerVisibility
5:50 PM
Jan 28
39 °FPassing clouds.20 mph81%29.56 "HgN/A
5:20 PM39 °FPassing clouds.21 mph81%29.62 "HgN/A
4:50 PM39 °FPartly sunny.17 mph81%29.62 "HgN/A
4:20 PM39 °FPartly sunny.17 mph81%29.65 "HgN/A
3:50 PM39 °FPartly sunny.17 mph81%29.68 "HgN/A
3:20 PM39 °FPartly sunny.17 mph81%29.71 "HgN/A
2:50 PM39 °FBroken clouds.18 mph81%29.74 "HgN/A
2:20 PM39 °FBroken clouds.16 mph81%29.77 "HgN/A
1:50 PM39 °FBroken clouds.17 mph87%29.80 "HgN/A
1:20 PM39 °FBroken clouds.15 mph87%29.83 "HgN/A
12:50 PM39 °FBroken clouds.17 mph87%29.86 "HgN/A
12:20 PM41 °FBroken clouds.20 mph81%29.86 "HgN/A
11:50 AM39 °FPartly sunny.17 mph87%29.89 "HgN/A
11:20 AM39 °FPartly sunny.15 mph87%29.92 "HgN/A
10:50 AM39 °FPartly sunny.13 mph87%29.92 "HgN/A
10:20 AM37 °FPartly sunny.10 mph93%29.95 "HgN/A
9:50 AM37 °FPartly sunny.9 mph93%29.98 "HgN/A
9:20 AM37 °FScattered clouds.14 mph87%29.98 "HgN/A
8:50 AM36 °FPartly sunny.12 mph93%29.98 "HgN/A
8:20 AM36 °FPartly sunny.9 mph100%29.98 "HgN/A
Weather by CustomWeather, © 2014

See weather overviewHow to use our weather pages